IBADAL6 Weather Reports


time (UTC)temp
F
wind
direction
speed
knots
gust
knots
rain 1hr
in
rain 24hr
in
rain mn
in
humidity
%
barometer
mb
20260504174555 65 161 0.9 2.6 0.00 0.13 0.09 83 1011.1
20260504173052 64 191 0.0 0.9 0.01 0.13 0.09 85 1011.2
20260504171547 63 162 0.0 0.9 0.01 0.13 0.09 85 1011.2
20260504081508 69 141 5.2 8.7 0.00 0.03 0.00 73 1013.0
20260504080106 68 323 0.0 3.5 0.00 0.03 0.00 73 1013.0
20260504050025 61 316 0.0 2.6 0.00 0.03 0.00 84 1013.5
20260504044537 61 291 0.0 0.0 0.00 0.03 0.00 85 1013.5
20260504043023 61 296 0.0 0.0 0.00 0.03 0.00 85 1013.5
20260504041522 61 296 0.0 0.0 0.00 0.03 0.00 84 1013.6
20260504040021 61 233 0.0 0.0 0.00 0.03 0.00 85 1013.8
20260504034532 61 304 0.0 0.0 0.00 0.03 0.00 85 1013.8
20260504033025 61 304 0.0 0.0 0.00 0.03 0.00 85 1013.9
20260504031519 61 297 0.0 1.7 0.00 0.03 0.00 85 1014.1
20260504030017 61 243 0.0 0.9 0.00 0.03 0.00 85 1014.1
20260504024520 61 302 0.0 0.9 0.00 0.03 0.00 85 1013.9
20260504023016 61 302 0.9 1.7 0.00 0.03 0.00 85 1013.9
20260504021520 61 306 0.9 1.7 0.00 0.03 0.00 86 1014.0
20260504020015 61 306 0.0 2.6 0.00 0.03 0.00 86 1014.0
20260504013011 61 300 1.7 4.3 0.00 0.03 0.00 86 1014.1
20260504011509 61 286 0.9 2.6 0.00 0.03 0.00 86 1014.3
20260504010010 61 314 1.7 3.5 0.00 0.03 0.00 86 1014.3
20260504004511 61 304 1.7 3.5 0.00 0.03 0.00 86 1014.4
20260504003006 61 314 1.7 3.5 0.00 0.03 0.00 87 1014.7
20260504001506 61 293 1.7 2.6 0.00 0.03 0.00 87 1014.7
20260504000004 61 295 0.0 1.7 0.00 0.03 0.00 87 1014.7
20260503234503 61 326 0.9 1.7 0.00 0.03 0.00 87 1014.7
20260503233002 62 12 0.0 1.7 0.00 0.03 0.00 87 1015.0
20260503231502 62 29 0.9 2.6 0.00 0.03 0.00 87 1014.9
20260503230101 62 28 0.0 1.7 0.00 0.03 0.00 87 1015.0
20260503224600 61 352 0.0 2.6 0.00 0.03 0.00 86 1015.2
20260503223057 61 347 0.0 2.6 0.00 0.03 0.00 86 1015.2
20260503221556 62 342 0.0 3.5 0.00 0.03 0.00 86 1015.2
20260503220109 62 15 1.7 4.3 0.00 0.03 0.00 86 1015.0
20260503214554 62 10 1.7 3.5 0.00 0.03 0.03 87 1015.1
20260503213053 61 14 0.9 3.5 0.00 0.03 0.03 88 1015.1
20260503211606 61 82 0.9 3.5 0.00 0.03 0.03 88 1015.3
20260503210056 61 333 0.9 2.6 0.01 0.03 0.03 88 1015.3
20260503204555 61 38 2.6 6.1 0.02 0.03 0.03 88 1015.4
20260503203050 61 30 0.9 4.3 0.03 0.03 0.03 89 1015.5
20260503201549 61 323 0.9 4.3 0.03 0.03 0.03 89 1015.5
20260503200049 61 77 0.9 4.3 0.02 0.02 0.02 88 1015.4
20260503194548 62 69 2.6 7.0 0.01 0.01 0.01 87 1015.4
20260503191543 62 111 0.9 4.3 0.00 0.00 0.00 84 1015.1
20260503190042 63 120 1.7 5.2 0.00 0.00 0.00 83 1014.8
20260503184545 63 96 0.0 2.6 0.00 0.00 0.00 83 1015.3
20260503183043 63 119 0.0 4.3 0.00 0.00 0.00 83 1015.1
20260503181614 63 132 0.0 4.3 0.00 0.00 0.00 82 1015.0
20260503180042 63 79 0.0 7.0 0.00 0.00 0.00 82 1015.1